sat.trackr.live / text

‹ back to catalog

STARLINK-36176

NORAD 67026 · 2025-293Z

PAYLOAD ACTIVE UNKNOWN

§ Identity

Operator
Country
US
Launch date
2025-12-10
Launch site
AFWTR
Launch vehicle
Mass (kg)
RCS (m²)

Purposes: comms

External: N2YO · Heavens-Above · Gunter

§ Orbital elements

Epoch: 2026-05-25T01:44:39.696288Z

Period
96.11 min
Inclination
70.0006°
Eccentricity
0.0003308
Mean motion
14.98336759 rev/d
Perigee alt
569.7 km
Apogee alt
574.3 km
Semi-major
6,950.2 km
B*
2.8063e-4
RAAN
261.6854°
Arg perigee
270.0503°
Mean anomaly
90.0277°
Rev number
2,632

§ Raw data

STARLINK-361761 67026U 25293Z   26145.07268167  .00003258  00000+0  28063-3 0  99962 67026  70.0006 261.6854 0003308 270.0503  90.0277 14.98336759 26322

JSON: /api/v1/satellites/67026 · /tle

For live sub-satellite position, see the globe view (requires WebGL).

§ Visibility from observer

Set your observer location to see the next 7 days of passes ≥ 10°. The values pass through the URL so the page stays shareable.

No JS? Fill the form by hand. The geolocation button needs JavaScript.